map of RES home
RES - Airport
Location
City:  Resistencia, Chaco, Argentina
ICAO:SARE
IATA:RES

Details
Type:Airport (Aerodrome, Airfield)
Use:Public/Civil
Latitude:2727'00"S (-27.449985)
Longitude:5903'22"W (-59.056124)
Datum:WGS 1984
Elevation:173 ft (53 m)
Variation:12.02W (WMM2015 magnetic declination)
-0.19 annual change
Runways:1
Longest:9088 × 147 ft (2770 × 45 m), paved

Time
Time Zone:UTC-3
Local Time:

Weather
METAR:SARE 210600Z 11003KT 9999 FEW060CB SCT100 23/21 Q1006
TAF:SARE 210500Z 2106/2206 05010KT CAVOK TX29/2118Z TN20/2109Z
BECMG 2108/2110 18010G20KT 5000 TSRA BKN015 FEW045CB BKN050
BECMG 2115/2117 18010KT 8000 BKN020 BKN050

Related Locations
Nearby:
Farthest:WNZ: 12441 mi / 20021 km
Wenzhou [Intl], 33, CN

Find:

   beyond  
but within

Other Information
Maps:
NOTAMs:
Links:
Sources:

  
flag of Argentina
flag of Chaco
  

Sectional Chart

Flight Planning
at skyvector.com

Satellite Image

Google Maps Satellite view

 

Copyright © 2004-2017 Karl L. Swartz. All rights reserved.
The Great Circle Mapper name and logo are trademarks of the Great Circle Mapper.
All other trademarks mentioned herein belong to their respective owners.
Please see credits for attibutions and further copyright information.

  Follow gcmap on Facebook Follow gcmap on Twitter Follow gcmap on Google+ GCmap on LinkedIn

hCard Microformat

Geo Microformat